Regional Weather Roundup
Issued by NWS

Home | Current Version | Previous Version | Graphics & Text | Print | Product List | Glossary On
Versions: 1 2 3 4 5 6 7 8 9 10 11 12 13 14 15 16 17 18 19 20 21 22 23 24 25 26 27 28 29 30 31 32 33 34 35 36 37 38 39 40 41 42 43 44 45 46 47 48 49 50
000
ASUS45 KCYS 212310
RWRWY

WYOMING REGIONAL WEATHER ROUNDUP
NATIONAL WEATHER SERVICE CHEYENNE WY
500 PM MDT THU AUG 21 2014

NOTE:  "FAIR" INDICATES FEW OR NO CLOUDS BELOW 12,000 FEET
WITH NO SIGNIFICANT WEATHER AND/OR OBSTRUCTIONS TO VISIBILITY.

WYZ001-220000-
YELLOWSTONE NATIONAL PARK

CITY           SKY/WX    TMP DP  RH WIND       PRES   REMARKS
LK YELLOWSTONE   N/A     56  44  64 VRB5      30.24F
W YELLOWSTONE  NOT AVBL

$$
WYZ002>013-054>058-071-098>099-220000-
NORTHERN WYOMING

CITY           SKY/WX    TMP DP  RH WIND       PRES   REMARKS
JACKSON        MOSUNNY   64  48  55 S7        30.17S
CODY           PTSUNNY   66  48  52 NE3       30.07S
GREYBULL       PTSUNNY   73  48  41 NE5       30.00F
WORLAND        PTSUNNY   69  54  58 N8        30.01F
SHERIDAN       CLOUDY    64  56  75 NW16      30.05R
BUFFALO        PTSUNNY   65  54  67 N18G26    30.06S
GILLETTE       PTSUNNY   80  49  33 VRB3      29.98F
HULETT         FAIR      77  50  38 MISG      30.01
NEWCASTLE      FAIR      82  41  23 NW5       29.96

$$
WYZ014>020-022>026-101>103-220000-
CENTRAL WYOMING

CITY           SKY/WX    TMP DP  RH WIND       PRES   REMARKS
BIG PINEY      CLOUDY    62  44  51 N10       30.21F
PINEDALE       CLOUDY    59  45  58 NW8       30.23F
DUBOIS         FAIR      61  37  41 NW17      30.18S
LANDER         CLOUDY    73  39  29 VRB3      30.06S
RIVERTON       CLOUDY    73  42  32 NW13      30.07S
CASPER         PTSUNNY   81  40  23 W17G29    30.03F
DOUGLAS        PTSUNNY   80  42  25 SW10      30.04R

$$
WYZ021-027>030-104>119-220000-
SOUTHERN WYOMING

CITY           SKY/WX    TMP DP  RH WIND       PRES   REMARKS
EVANSTON       MOSUNNY   69  42  37 W14       30.21F
KEMMERER       MOCLDY    64  41  42 W16G25    30.23F
FORT BRIDGER   FAIR      67  47  49 W10       30.25F
ROCK SPRINGS   CLOUDY    56  50  80 S14       30.23F
DIXON          FAIR      74  42  31 NW25      30.22R
RAWLINS        PTSUNNY   68  45  43 SW14      30.21S
SARATOGA       FAIR      70  43  37 MISG      30.22F
LARAMIE        CLOUDY    72  38  29 SW8       30.21F
CHEYENNE       LGT RAIN  74  45  35 CALM      30.14S
TORRINGTON     MOSUNNY   86  42  21 NW9       29.97F
PINE BLUFFS    MOCLDY    79  43  27 SW6       30.09S

$$


USA.gov is the U.S. government's official web portal to all federal, state and local government web resources and services.